NSZ3097 EKYT-EKCH

Flight info

Callsign NSZ3097
Flight time N/A
Altitude 17000
Route AAL M725 ADSEN DCT TNO
Aircraft B738/M-SDE2E3FGHIRWXY/LB1

Departure

Time 2026-04-28 19:24
Airport Aalborg Airport (EKYT)

Arrival

Time N/A
Airport Copenhagen Kastrup Airport (EKCH)
Time Latitude Longitude Altitude Speed Heading
2026-04-28 19:03 57.08613 9.87095 18 ft 0 kts 55°
2026-04-28 19:15 57.08606 9.87075 18 ft 2 kts 53°
2026-04-28 19:15 57.08596 9.87051 18 ft 2 kts 48°
2026-04-28 19:15 57.08588 9.87037 18 ft 2 kts 35°
2026-04-28 19:16 57.08570 9.87036 21 ft 1 kts 319°
2026-04-28 19:16 57.08568 9.87039 21 ft 0 kts 317°
2026-04-28 19:18 57.08578 9.87023 18 ft 6 kts 317°
2026-04-28 19:18 57.08620 9.86941 18 ft 13 kts 313°
2026-04-28 19:18 57.08696 9.86809 18 ft 16 kts 319°
2026-04-28 19:18 57.08780 9.86681 18 ft 16 kts 321°
2026-04-28 19:19 57.08864 9.86560 18 ft 15 kts 322°
2026-04-28 19:19 57.08950 9.86437 18 ft 17 kts 321°
2026-04-28 19:19 57.09056 9.86284 18 ft 22 kts 323°
2026-04-28 19:19 57.09179 9.86114 18 ft 23 kts 323°
2026-04-28 19:20 57.09267 9.85992 18 ft 12 kts 323°
2026-04-28 19:20 57.09340 9.85958 18 ft 13 kts 52°
2026-04-28 19:20 57.09362 9.86125 18 ft 16 kts 82°
2026-04-28 19:20 57.09381 9.86437 18 ft 33 kts 83°
2026-04-28 19:21 57.09415 9.86944 20 ft 44 kts 83°
2026-04-28 19:21 57.09450 9.87466 18 ft 20 kts 84°
2026-04-28 19:21 57.09459 9.87634 18 ft 15 kts 80°
2026-04-28 19:21 57.09530 9.87738 18 ft 0 kts
2026-04-28 19:22 57.09535 9.87738 18 ft 6 kts
2026-04-28 19:22 57.09626 9.87669 18 ft 18 kts 315°
2026-04-28 19:23 57.09639 9.87457 18 ft 17 kts 264°
2026-04-28 19:23 57.09610 9.86990 18 ft 71 kts 263°
2026-04-28 19:23 57.09526 9.85651 18 ft 137 kts 263°
2026-04-28 19:23 57.09343 9.83609 172 ft 178 kts 259°
2026-04-28 19:24 57.09064 9.81311 718 ft 199 kts 261°
2026-04-28 19:24 57.08784 9.78647 970 ft 222 kts 259°
2026-04-28 19:24 57.08435 9.75841 1502 ft 228 kts 259°
2026-04-28 19:24 57.08070 9.72964 2144 ft 232 kts 259°
2026-04-28 19:25 57.07698 9.69979 2598 ft 249 kts 259°
2026-04-28 19:25 57.07308 9.66797 3224 ft 259 kts 259°
2026-04-28 19:25 57.06662 9.63676 3918 ft 269 kts 233°
2026-04-28 19:25 57.05159 9.61656 4710 ft 274 kts 198°
2026-04-28 19:26 57.03293 9.61496 5439 ft 276 kts 163°
2026-04-28 19:26 57.01664 9.63257 6155 ft 274 kts 129°
2026-04-28 19:26 57.00406 9.65901 6907 ft 278 kts 134°
2026-04-28 19:26 56.98914 9.68227 7590 ft 284 kts 138°
2026-04-28 19:27 56.97375 9.70551 8271 ft 288 kts 138°
2026-04-28 19:27 56.95821 9.72904 8964 ft 293 kts 137°
2026-04-28 19:27 56.94232 9.75307 9663 ft 297 kts 137°
2026-04-28 19:27 56.92623 9.77733 10347 ft 302 kts 137°
2026-04-28 19:28 56.90974 9.80216 10821 ft 314 kts 137°
2026-04-28 19:28 56.89220 9.82857 10980 ft 336 kts 138°
2026-04-28 19:28 56.87350 9.85667 11163 ft 356 kts 138°
2026-04-28 19:28 56.85396 9.88590 11570 ft 367 kts 138°
2026-04-28 19:29 56.83404 9.91561 12202 ft 371 kts 138°
2026-04-28 19:29 56.82076 9.93536 12657 ft 373 kts 138°
2026-04-28 19:29 56.79383 9.97537 13573 ft 378 kts 138°
2026-04-28 19:29 56.77383 10.00506 14214 ft 383 kts 138°
2026-04-28 19:30 56.75305 10.03587 14822 ft 387 kts 137°
2026-04-28 19:30 56.73203 10.06699 15444 ft 392 kts 137°
2026-04-28 19:30 56.71078 10.09841 16071 ft 396 kts 137°
2026-04-28 19:30 56.68928 10.13017 16708 ft 399 kts 137°
2026-04-28 19:31 56.66762 10.16210 17320 ft 402 kts 136°
2026-04-28 19:31 56.64586 10.19414 17439 ft 402 kts 136°
2026-04-28 19:31 56.62420 10.22595 17438 ft 399 kts 136°
2026-04-28 19:31 56.60422 10.25524 17437 ft 397 kts 136°
2026-04-28 19:32 56.58289 10.28708 17449 ft 397 kts 136°
2026-04-28 19:32 56.56185 10.31887 17452 ft 398 kts 136°
2026-04-28 19:32 56.54044 10.35100 17445 ft 399 kts 136°
2026-04-28 19:32 56.51895 10.38292 17445 ft 400 kts 136°
2026-04-28 19:33 56.49733 10.41470 17437 ft 400 kts 136°
2026-04-28 19:33 56.47571 10.44623 17463 ft 400 kts 137°
2026-04-28 19:33 56.45185 10.47279 17419 ft 408 kts 155°
2026-04-28 19:33 56.42442 10.48486 17190 ft 406 kts 175°
2026-04-28 19:34 56.39663 10.48048 16915 ft 397 kts 196°
2026-04-28 19:34 56.37160 10.46148 16662 ft 386 kts 211°
2026-04-28 19:34 56.34861 10.43748 16417 ft 377 kts 213°
2026-04-28 19:34 56.32641 10.41313 16164 ft 371 kts 214°
2026-04-28 19:35 56.30451 10.38889 15799 ft 367 kts 214°
2026-04-28 19:35 56.28281 10.36480 15425 ft 365 kts 214°
2026-04-28 19:35 56.26131 10.34085 15040 ft 362 kts 214°
2026-04-28 19:35 56.24011 10.31715 14684 ft 360 kts 214°
2026-04-28 19:36 56.21882 10.29332 14321 ft 357 kts 214°
2026-04-28 19:36 56.19775 10.26974 13921 ft 355 kts 214°
2026-04-28 19:36 56.17683 10.24631 13518 ft 353 kts 214°
2026-04-28 19:36 56.15630 10.22333 13127 ft 350 kts 214°
2026-04-28 19:37 56.13568 10.20024 12617 ft 351 kts 214°
2026-04-28 19:37 56.12164 10.18448 12237 ft 354 kts 214°
2026-04-28 19:37 56.09390 10.15328 11506 ft 357 kts 214°
2026-04-28 19:37 56.07279 10.12950 10953 ft 359 kts 214°
2026-04-28 19:38 56.05158 10.10560 10417 ft 360 kts 214°
2026-04-28 19:38 56.03040 10.08172 9830 ft 358 kts 214°
2026-04-28 19:38 56.00954 10.05817 9406 ft 349 kts 214°
2026-04-28 19:38 55.98933 10.03533 9086 ft 337 kts 214°
2026-04-28 19:39 55.96981 10.01324 8796 ft 327 kts 214°
2026-04-28 19:39 55.95091 9.99184 8546 ft 316 kts 214°
2026-04-28 19:39 55.93259 9.97110 8283 ft 306 kts 214°
2026-04-28 19:39 55.91510 9.95129 8027 ft 298 kts 214°
2026-04-28 19:40 55.89965 9.92780 7753 ft 289 kts 237°
2026-04-28 19:40 55.89172 9.89592 7538 ft 278 kts 265°
2026-04-28 19:40 55.89303 9.86272 7472 ft 267 kts 294°
2026-04-28 19:40 55.90285 9.83533 7439 ft 262 kts 322°
2026-04-28 19:41 55.91859 9.82019 7446 ft 257 kts 349°
2026-04-28 19:41 55.93619 9.81636 7444 ft 254 kts 358°
2026-04-28 19:41 55.95387 9.81472 7432 ft 254 kts 359°